Regional Weather Roundup
Issued by NWS Cleveland, OH

Home | Current Version | Previous Version | Graphics & Text | Print | Product List | Glossary On
Versions: 1 2 3 4 5 6 7 8 9 10 11 12 13 14 15 16 17 18 19 20 21 22 23 24 25 26 27 28 29 30 31 32 33 34 35 36 37 38 39 40 41 42 43 44 45 46 47 48 49 50
966
ASUS41 KCLE 211802
RWRCLE
OHIO REGIONAL WEATHER ROUNDUP
NATIONAL WEATHER SERVICE CLEVELAND, OH
100 PM EST SAT JAN 21 2017

NOTE: "FAIR" INDICATES FEW OR NO CLOUDS BELOW 12,000 FEET WITH NO
SIGNIFICANT WEATHER AND/OR OBSTRUCTIONS TO VISIBILITY.

OHZ001>008-015>018-024>027-034-035-043-044-211900-
   NORTHWEST OHIO

CITY           SKY/WX    TMP DP  RH WIND       PRES   REMARKS
DEFIANCE       MOSUNNY   57  51  80 S9        29.62F
FINDLAY        MOSUNNY   60  53  77 S8        29.64F
TOLEDO EXPRESS CLOUDY    57  53  86 S7        29.63F
TOLEDO EXEC    MOSUNNY   58  53  84 S12       29.65F
LIMA           MOSUNNY   59  54  83 S10       29.63F
$$

OHZ009>014-019>023-028>033-038-089-211900-
   NORTHEAST OHIO

CITY           SKY/WX    TMP DP  RH WIND       PRES   REMARKS
CLE-HOPKINS    PTSUNNY   63  50  62 S12       29.69F
CLE-LAKEFRONT  SUNNY     64  51  62 S10       29.65F
CUY CO. ARPT   MOSUNNY   63  52  67 S16       29.68F
LORAIN-ELYRIA  MOSUNNY   60  51  72 S12       29.66F
ASHTABULA      SUNNY     60  52  74 S10       29.69F
AKRON-CANTON   PTSUNNY   59  50  72 S13       29.70F
WOOSTER        MOSUNNY   57  51  80 S8        29.70F
MANSFIELD      PTSUNNY   58  52  80 S12       29.68F
YOUNGSTOWN     PTSUNNY   60  50  69 S8        29.72F
$$

OHZ042-051>053-060>062-070>072-077>081-211900-
  SOUTHWEST OHIO

CITY           SKY/WX    TMP DP  RH WIND       PRES   REMARKS
CINC-COVINGTON CLOUDY    61  53  75 S12       29.65F
CINC-LUNKEN    CLOUDY    61  55  81 S5        29.67F
HAMILTON       CLOUDY    61  52  72 VRB3      29.67F
DAYTON         CLOUDY    59  50  72 S9        29.67F
WRIGHT-PAT AFB CLOUDY    59  52  77 S7        29.66F
DAYTON GENERAL PTSUNNY   60  51  72 S7        29.66F
WILMINGTON     CLOUDY    58  51  78 S8        29.67F
$$

OHZ036-037-039>041-045>050-054>059-063>069-073>076-082>088-211900-
  CENTRAL AND SOUTHEAST OHIO

CITY           SKY/WX    TMP DP  RH WIND       PRES   REMARKS
COLUMBUS       CLOUDY    62  51  67 S9        29.68F
OSU AIRPORT    CLOUDY    58  52  80 S8        29.67F
BOLTON FIELD   SUNNY     57  54  88 S7        29.68F
RICKENBACK AFB   N/A     59  52  78 S8        29.68F
NEWARK         MOSUNNY   60  51  72 S5        29.68F
MARION         CLOUDY    57  51  80 S12       29.67F
LANCASTER      CLOUDY    63  52  67 S8        29.69F
ZANESVILLE     MOSUNNY   62  51  67 S8        29.70F
NEW PHILLY     NOT AVBL
$$




USA.gov is the U.S. government's official web portal to all federal, state and local government web resources and services.